This is the latest recevied weather packets stored in our database for station/object K7PMV-13. If no packets are shown the sender has not sent any weather packets the latest 10 day(s).
| Time | Temp. | Humidity | Pressure | Rain* | Wind** | Luminosity | Snow |
|---|---|---|---|---|---|---|---|
| 1777664690 | 29.44° C | 27% | 1006.9 hPa | 0 mm | - | 944 W/m² | - |
| 1777664386 | 28.89° C | 26% | 1006.9 hPa | 0 mm | - | 944 W/m² | - |
| 1777664084 | 29.44° C | 26% | 1007 hPa | 0 mm | - | 951 W/m² | - |
| 1777663781 | 29.44° C | 26% | 1007.1 hPa | 0 mm | - | 951 W/m² | - |
| 1777663478 | 29.44° C | 26% | 1007.2 hPa | 0 mm | - | 951 W/m² | - |
| 1777663175 | 29.44° C | 26% | 1007.3 hPa | 0 mm | - | 947 W/m² | - |
| 1777662870 | 29.44° C | 27% | 1007.3 hPa | 0 mm | - | 944 W/m² | - |
| 1777662567 | 28.89° C | 28% | 1007.4 hPa | 0 mm | - | 942 W/m² | - |
| 1777662263 | 28.89° C | 29% | 1007.5 hPa | 0 mm | - | 944 W/m² | - |
| 1777661961 | 28.89° C | 30% | 1007.5 hPa | 0 mm | - | 942 W/m² | - |
| 1777661657 | 28.33° C | 29% | 1007.7 hPa | 0 mm | - | 939 W/m² | - |
| 1777661355 | 28.89° C | 29% | 1007.8 hPa | 0 mm | - | 935 W/m² | - |
| 1777661052 | 27.78° C | 30% | 1007.9 hPa | 0 mm | - | 935 W/m² | - |
| 1777660749 | 27.78° C | 29% | 1007.9 hPa | 0 mm | - | 930 W/m² | - |
| 1777660447 | 27.78° C | 28% | 1008.1 hPa | 0 mm | - | 926 W/m² | - |
| 1777660144 | 27.78° C | 28% | 1008.1 hPa | 0 mm | - | 919 W/m² | - |
| 1777659841 | 10.56° C | - | - | 18.54 mm | - | - | - |
| 1777659497 | 27.78° C | 29% | 1008.2 hPa | 0 mm | - | 830 W/m² | - |
| 1777659195 | 27.22° C | 31% | 1008.3 hPa | 0 mm | - | 773 W/m² | - |
| 1777658885 | 27.22° C | 31% | 1008.3 hPa | 0 mm | - | 726 W/m² | - |
| 1777658583 | 26.67° C | 32% | 1008.5 hPa | 0 mm | - | 693 W/m² | - |
| 1777658279 | 26.67° C | 31% | 1008.5 hPa | 0 mm | - | 360 W/m² | - |
| 1777657970 | 26.67° C | 32% | 1008.6 hPa | 0 mm | - | 547 W/m² | - |
| 1777657274 | 26.11° C | 32% | 1008.7 hPa | 0 mm | - | 803 W/m² | - |
| 1777656971 | 26.11° C | 32% | 1008.7 hPa | 0 mm | - | 824 W/m² | - |
* Rain latest hour (hover to see other rain measurements)
** Current wind speed in m/s (hover to see current wind gust speed)